Preview of NWS' New Version of Forecast
This preview is not operational and should not be used for support decisions.

Regional Weather Roundup (RWR)

Issued by National Weather Service (NWS)

                            
000
ASUS43 KTOP 181708
RWRKS 

WEATHER ROUNDUP FOR KANSAS
NATIONAL WEATHER SERVICE GOODLAND KS
1200 PM CDT TUE JUN 18 2019

NOTE:  "FAIR" INDICATES FEW OR NO CLOUDS BELOW 12,000 FEET WITH NO
SIGNIFICANT WEATHER AND/OR OBSTRUCTIONS TO VISIBILITY.

KSZ001>006-013>018-027>032-041>047-181800-
NORTHWEST KANSAS
  
CITY           SKY/WX    TMP DP  RH WIND       PRES   REMARKS
GOODLAND       CLOUDY    64  60  87 NE6       30.03S                  
HAYS           CLOUDY    66  63  90 E6        29.98S                  
HILL CITY      LGT RAIN  65  63  93 SE8       29.98S FOG              
RUSSELL        LGT RAIN  66  63  90 E3        29.96S                  
$$

KSZ061>065-074>080-084>089-181800-
SOUTHWEST KANSAS
  
CITY           SKY/WX    TMP DP  RH WIND       PRES   REMARKS
DODGE CITY     PTSUNNY   72  65  78 SE5       29.97S                  
ELKHART        FAIR      75  63  66 N3        30.00F                  
GARDEN CITY    MOSUNNY   72  62  71 SW6       29.98S                  
GREAT BEND     LGT RAIN  63  63 100 N6        29.98R                  
LIBERAL        SUNNY     73  63  70 S5        29.98F                  
PRATT          PTSUNNY   72  65  77 E9        29.96F                  
$$

KSZ066>073-081>083-090>101-181800-
SOUTHEAST KANSAS
  
CITY           SKY/WX    TMP DP  RH WIND       PRES   REMARKS
CHANUTE        CLOUDY    81  68  64 SE5       29.95S                  
COFFEYVILLE    SUNNY     82  68  62 N6        29.92F                  
HUTCHINSON     CLOUDY    73  64  73 CALM      29.94F                  
MEDICINE LODGE   N/A     75  67  76 SE6       29.93S                  
NEWTON         MOSUNNY   73  66  78 S7        29.95F                  
PARSONS        MOSUNNY   81  68  64 CALM      29.95S                  
WICHITA INTL   PTSUNNY   77  66  68 SE6       29.93F                  
WICHITA JABRA  SUNNY     75  67  76 S6        29.94F                  
WICHITA MCCONL PTSUNNY   76  67  73 SE5       29.95S                  
WINFIELD       SUNNY     79  68  69 S6        29.95F                  
$$

KSZ007>012-019>026-033>040-048>060-102>105-181800-
NORTHEAST KANSAS
  
CITY           SKY/WX    TMP DP  RH WIND       PRES   REMARKS
CONCORDIA      RAIN      70  67  90 W5        29.94F                  
EMPORIA        MOSUNNY   78  68  71 CALM      29.93F                  
LAWRENCE       SUNNY     78  66  66 MISG      29.94F                  
MANHATTAN      PTSUNNY   79  69  71 SE7       29.91F                  
MARYSVILLE     CLOUDY    77  68  73 SE6       29.92F                  
OLATHE IND     MOSUNNY   76  64  66 SE7       29.96F                  
OLATHE EXE     PTSUNNY   74  66  76 CALM      29.95F                  
SALINA         LGT RAIN  74  65  73 NW7       29.92F                  
TOPEKA BILLARD MOSUNNY   82  65  56 NE6       29.92F                  
TOPEKA FORBES  MOSUNNY   80  67  64 E7        29.93F                  
$$